Location: Newark
(41.8083°N, 72.2500°W)
Time: 21:12:00
(UTC+00:00)

Courier 1B - Pass Details

Date: 05 December 2021
Orbit: 962 x 1209 km, 28.3° (Epoch: 19 January)

Event Time Altitude Azimuth Distance (km) Brightness Sun altitude
Rises 21:47:20 0° 241° (WSW) 4,051 13.5 -5.6°
Reaches altitude 10° 21:50:41 10° 229° (SW) 3,058 11.6 -6.2°
Maximum altitude 21:56:46 27° 175° (S) 1,997 9.4 -7.2°
Drops below altitude 10° 22:02:36 10° 121° (ESE) 2,913 9.6 -8.2°
Sets 22:05:42 0° 109° (ESE) 3,827 10.2 -8.8°
Enters shadow 22:05:48 - 109° (ESE) 3,856 10.2 -8.8°
